Year,Month,Day,Hour,Minute,Value (Times are PST for temperature in C)
2014,07,14,00,00,25.90
2014,07,14,00,01,25.90
2014,07,14,00,02,25.90
2014,07,14,00,03,25.90
2014,07,14,00,04,25.80
2014,07,14,00,05,25.80
2014,07,14,00,06,25.80
2014,07,14,00,07,25.80
2014,07,14,00,08,25.70
2014,07,14,00,09,25.70
2014,07,14,00,10,25.70
2014,07,14,00,11,25.70
2014,07,14,00,12,25.70
2014,07,14,00,13,25.70
2014,07,14,00,14,25.60
2014,07,14,00,15,25.60
2014,07,14,00,16,25.60
2014,07,14,00,17,25.50
2014,07,14,00,18,25.50
2014,07,14,00,19,25.40
2014,07,14,00,20,25.40
2014,07,14,00,21,25.40
2014,07,14,00,22,25.30
2014,07,14,00,23,25.30
2014,07,14,00,24,25.20
2014,07,14,00,25,25.20
2014,07,14,00,26,25.20
2014,07,14,00,27,25.20
2014,07,14,00,28,25.10
2014,07,14,00,29,25.10
2014,07,14,00,30,25.00
2014,07,14,00,31,25.00
2014,07,14,00,32,24.90
2014,07,14,00,33,24.90
2014,07,14,00,34,24.90
2014,07,14,00,35,24.90
2014,07,14,00,36,24.90
2014,07,14,00,37,24.90
2014,07,14,00,38,24.90
2014,07,14,00,39,24.90
2014,07,14,00,40,24.90
2014,07,14,00,41,24.90
2014,07,14,00,42,24.90
2014,07,14,00,43,24.90
2014,07,14,00,44,24.90
2014,07,14,00,45,24.90
2014,07,14,00,46,25.00
2014,07,14,00,47,25.00
2014,07,14,00,48,25.10
2014,07,14,00,49,25.10
2014,07,14,00,50,25.10
2014,07,14,00,51,25.10
2014,07,14,00,52,25.10
2014,07,14,00,53,25.10
2014,07,14,00,54,25.10
2014,07,14,00,55,25.10
2014,07,14,00,56,25.10
2014,07,14,00,57,25.10
2014,07,14,00,58,25.10
2014,07,14,00,59,25.10
2014,07,14,01,00,25.00
2014,07,14,01,01,25.00
2014,07,14,01,02,25.00
2014,07,14,01,03,24.90
2014,07,14,01,04,24.90
2014,07,14,01,05,24.80
2014,07,14,01,06,24.80
2014,07,14,01,07,24.80
2014,07,14,01,08,24.70
2014,07,14,01,09,24.70
2014,07,14,01,10,24.60
2014,07,14,01,11,24.60
2014,07,14,01,12,24.50
2014,07,14,01,13,24.40
2014,07,14,01,14,24.40
2014,07,14,01,15,24.40
2014,07,14,01,16,24.30
2014,07,14,01,17,24.30
2014,07,14,01,18,24.30
2014,07,14,01,19,24.30
2014,07,14,01,20,24.30
2014,07,14,01,21,24.30
2014,07,14,01,22,24.20
2014,07,14,01,23,24.20
2014,07,14,01,24,24.20
2014,07,14,01,25,24.20
2014,07,14,01,26,24.10
2014,07,14,01,27,24.10
2014,07,14,01,28,24.10
2014,07,14,01,29,24.10
2014,07,14,01,30,24.00
2014,07,14,01,31,24.00
2014,07,14,01,32,23.90
2014,07,14,01,33,23.90
2014,07,14,01,34,23.90
2014,07,14,01,35,23.80
2014,07,14,01,36,23.80
2014,07,14,01,37,23.70
2014,07,14,01,38,23.60
2014,07,14,01,39,23.50
2014,07,14,01,40,23.50
2014,07,14,01,41,23.40
2014,07,14,01,42,23.30
2014,07,14,01,43,23.30
2014,07,14,01,44,23.20
2014,07,14,01,45,23.00
2014,07,14,01,46,22.90
2014,07,14,01,47,22.80
2014,07,14,01,48,22.70
2014,07,14,01,49,22.60
2014,07,14,01,50,22.60
2014,07,14,01,51,22.60
2014,07,14,01,52,22.50
2014,07,14,01,53,22.50
2014,07,14,01,54,22.50
2014,07,14,01,55,22.50
2014,07,14,01,56,22.40
2014,07,14,01,57,22.40
2014,07,14,01,58,22.40
2014,07,14,01,59,22.40
2014,07,14,02,00,22.40
2014,07,14,02,01,22.30
2014,07,14,02,02,22.20
2014,07,14,02,03,22.20
2014,07,14,02,04,22.10
2014,07,14,02,05,22.10
2014,07,14,02,06,22.10
2014,07,14,02,07,22.10
2014,07,14,02,08,22.00
2014,07,14,02,09,22.00
2014,07,14,02,10,22.00
2014,07,14,02,11,22.10
2014,07,14,02,12,22.10
2014,07,14,02,13,22.20
2014,07,14,02,14,22.20
2014,07,14,02,15,22.30
2014,07,14,02,16,22.30
2014,07,14,02,17,22.40
2014,07,14,02,18,22.40
2014,07,14,02,19,22.50
2014,07,14,02,20,22.50
2014,07,14,02,21,22.60
2014,07,14,02,22,22.60
2014,07,14,02,23,22.60
2014,07,14,02,24,22.70
2014,07,14,02,25,22.70
2014,07,14,02,26,22.80
2014,07,14,02,27,22.80
2014,07,14,02,28,22.80
2014,07,14,02,29,22.80
2014,07,14,02,30,22.90
2014,07,14,02,31,22.90
2014,07,14,02,32,22.90
2014,07,14,02,33,23.00
2014,07,14,02,34,23.10
2014,07,14,02,35,23.10
2014,07,14,02,36,23.10
2014,07,14,02,37,23.10
2014,07,14,02,38,23.20
2014,07,14,02,39,23.10
2014,07,14,02,40,23.20
2014,07,14,02,41,23.10
2014,07,14,02,42,23.10
2014,07,14,02,43,23.10
2014,07,14,02,44,23.10
2014,07,14,02,45,23.10
2014,07,14,02,46,23.10
2014,07,14,02,47,23.10
2014,07,14,02,48,23.10
2014,07,14,02,49,23.10
2014,07,14,02,50,23.10
2014,07,14,02,51,23.10
2014,07,14,02,52,23.00
2014,07,14,02,53,23.00
2014,07,14,02,54,23.00
2014,07,14,02,55,22.90
2014,07,14,02,56,22.90
2014,07,14,02,57,22.90
2014,07,14,02,58,22.80
2014,07,14,02,59,22.80
2014,07,14,03,00,22.80
2014,07,14,03,01,22.80
2014,07,14,03,02,22.80
2014,07,14,03,03,22.80
2014,07,14,03,04,22.80
2014,07,14,03,05,22.80
2014,07,14,03,06,22.80
2014,07,14,03,07,22.80
2014,07,14,03,08,22.80
2014,07,14,03,09,22.70
2014,07,14,03,10,22.70
2014,07,14,03,11,22.70
2014,07,14,03,12,22.70
2014,07,14,03,13,22.70
2014,07,14,03,14,22.70
2014,07,14,03,15,22.60
2014,07,14,03,16,22.60
2014,07,14,03,17,22.50
2014,07,14,03,18,22.40
2014,07,14,03,19,22.30
2014,07,14,03,20,22.30
2014,07,14,03,21,22.10
2014,07,14,03,22,22.00
2014,07,14,03,23,21.80
2014,07,14,03,24,21.70
2014,07,14,03,25,21.60
2014,07,14,03,26,21.50
2014,07,14,03,27,21.30
2014,07,14,03,28,21.20
2014,07,14,03,29,21.10
2014,07,14,03,30,21.00
2014,07,14,03,31,20.90
2014,07,14,03,32,20.80
2014,07,14,03,33,20.70
2014,07,14,03,34,20.60
2014,07,14,03,35,20.50
2014,07,14,03,36,20.50
2014,07,14,03,37,20.30
2014,07,14,03,38,20.30
2014,07,14,03,39,20.20
2014,07,14,03,40,20.20
2014,07,14,03,41,20.10
2014,07,14,03,42,20.10
2014,07,14,03,43,20.00
2014,07,14,03,44,20.00
2014,07,14,03,45,19.90
2014,07,14,03,46,19.90
2014,07,14,03,47,19.90
2014,07,14,03,48,19.90
2014,07,14,03,49,19.90
2014,07,14,03,50,19.90
2014,07,14,03,51,19.90
2014,07,14,03,52,19.90
2014,07,14,03,53,20.00
2014,07,14,03,54,20.00
2014,07,14,03,55,20.10
2014,07,14,03,56,20.20
2014,07,14,03,57,20.30
2014,07,14,03,58,20.30
2014,07,14,03,59,20.40
2014,07,14,04,00,20.40
2014,07,14,04,01,20.40
2014,07,14,04,02,20.40
2014,07,14,04,03,20.40
2014,07,14,04,04,20.30
2014,07,14,04,05,20.30
2014,07,14,04,06,20.20
2014,07,14,04,07,20.10
2014,07,14,04,08,20.00
2014,07,14,04,09,19.90
2014,07,14,04,10,19.90
2014,07,14,04,11,19.80
2014,07,14,04,12,19.80
2014,07,14,04,13,19.70
2014,07,14,04,14,19.70
2014,07,14,04,15,19.60
2014,07,14,04,16,19.50
2014,07,14,04,17,19.40
2014,07,14,04,18,19.40
2014,07,14,04,19,19.30
2014,07,14,04,20,19.30
2014,07,14,04,21,19.30
2014,07,14,04,22,19.20
2014,07,14,04,23,19.20
2014,07,14,04,24,19.20
2014,07,14,04,25,19.30
2014,07,14,04,26,19.40
2014,07,14,04,27,19.40
2014,07,14,04,28,19.50
2014,07,14,04,29,19.50
2014,07,14,04,30,19.60
2014,07,14,04,31,19.60
2014,07,14,04,32,19.60
2014,07,14,04,33,19.60
2014,07,14,04,34,19.50
2014,07,14,04,35,19.50
2014,07,14,04,36,19.40
2014,07,14,04,37,19.40
2014,07,14,04,38,19.30
2014,07,14,04,39,19.20
2014,07,14,04,40,19.10
2014,07,14,04,41,19.00
2014,07,14,04,42,18.90
2014,07,14,04,43,18.80
2014,07,14,04,44,18.70
2014,07,14,04,45,18.70
2014,07,14,04,46,18.70
2014,07,14,04,47,18.80
2014,07,14,04,48,18.90
2014,07,14,04,49,19.00
2014,07,14,04,50,19.10
2014,07,14,04,51,19.20
2014,07,14,04,52,19.20
2014,07,14,04,53,19.30
2014,07,14,04,54,19.30
2014,07,14,04,55,19.30
2014,07,14,04,56,19.30
2014,07,14,04,57,19.30
2014,07,14,04,58,19.30
2014,07,14,04,59,19.30
2014,07,14,05,00,19.30
2014,07,14,05,01,19.20
2014,07,14,05,02,19.20
2014,07,14,05,03,19.10
2014,07,14,05,04,19.00
2014,07,14,05,05,18.90
2014,07,14,05,06,18.80
2014,07,14,05,07,18.70
2014,07,14,05,08,18.70
2014,07,14,05,09,18.60
2014,07,14,05,10,18.50
2014,07,14,05,11,18.40
2014,07,14,05,12,18.30
2014,07,14,05,13,18.30
2014,07,14,05,14,18.20
2014,07,14,05,15,18.20
2014,07,14,05,16,18.20
2014,07,14,05,17,18.20
2014,07,14,05,18,18.20
2014,07,14,05,19,18.20
2014,07,14,05,20,18.20
2014,07,14,05,21,18.10
2014,07,14,05,22,18.10
2014,07,14,05,23,18.00
2014,07,14,05,24,18.00
2014,07,14,05,25,17.90
2014,07,14,05,26,17.90
2014,07,14,05,27,17.90
2014,07,14,05,28,17.80
2014,07,14,05,29,17.80
2014,07,14,05,30,17.90
2014,07,14,05,31,17.90
2014,07,14,05,32,17.90
2014,07,14,05,33,18.00
2014,07,14,05,34,18.00
2014,07,14,05,35,18.10
2014,07,14,05,36,18.30
2014,07,14,05,37,18.30
2014,07,14,05,38,18.40
2014,07,14,05,39,18.50
2014,07,14,05,40,18.60
2014,07,14,05,41,18.50
2014,07,14,05,42,18.40
2014,07,14,05,43,18.30
2014,07,14,05,44,18.20
2014,07,14,05,45,18.10
2014,07,14,05,46,18.10
2014,07,14,05,47,18.10
2014,07,14,05,48,18.10
2014,07,14,05,49,18.10
2014,07,14,05,50,18.00
2014,07,14,05,51,17.90
2014,07,14,05,52,17.90
2014,07,14,05,53,17.80
2014,07,14,05,54,17.70
2014,07,14,05,55,17.60
2014,07,14,05,56,17.60
2014,07,14,05,57,17.50
2014,07,14,05,58,17.50
2014,07,14,05,59,17.40
2014,07,14,06,00,17.40
2014,07,14,06,01,17.40
2014,07,14,06,02,17.40
2014,07,14,06,03,17.40
2014,07,14,06,04,17.30
2014,07,14,06,05,17.20
2014,07,14,06,06,17.20
2014,07,14,06,07,17.10
2014,07,14,06,08,17.10
2014,07,14,06,09,17.00
2014,07,14,06,10,17.00
2014,07,14,06,11,17.10
2014,07,14,06,12,17.10
2014,07,14,06,13,17.10
2014,07,14,06,14,17.00
2014,07,14,06,15,17.00
2014,07,14,06,16,16.90
2014,07,14,06,17,16.80
2014,07,14,06,18,16.80
2014,07,14,06,19,16.80
2014,07,14,06,20,17.00
2014,07,14,06,21,17.00
2014,07,14,06,22,17.10
2014,07,14,06,23,17.20
2014,07,14,06,24,17.20
2014,07,14,06,25,17.20
2014,07,14,06,26,17.30
2014,07,14,06,27,17.20
2014,07,14,06,28,17.20
2014,07,14,06,29,17.20
2014,07,14,06,30,17.30
2014,07,14,06,31,17.30
2014,07,14,06,32,17.30
2014,07,14,06,33,17.30
2014,07,14,06,34,17.30
2014,07,14,06,35,17.40
2014,07,14,06,36,17.40
2014,07,14,06,37,17.40
2014,07,14,06,38,17.30
2014,07,14,06,39,17.30
2014,07,14,06,40,17.30
2014,07,14,06,41,17.30
2014,07,14,06,42,17.30
2014,07,14,06,43,17.30
2014,07,14,06,44,17.40
2014,07,14,06,45,17.40
2014,07,14,06,46,17.40
2014,07,14,06,47,17.40
2014,07,14,06,48,17.40
2014,07,14,06,49,17.40
2014,07,14,06,50,17.30
2014,07,14,06,51,17.30
2014,07,14,06,52,17.30
2014,07,14,06,53,17.20
2014,07,14,06,54,17.20
2014,07,14,06,55,17.10
2014,07,14,06,56,17.10
2014,07,14,06,57,17.10
2014,07,14,06,58,17.10
2014,07,14,06,59,17.20
2014,07,14,07,00,17.20
2014,07,14,07,01,17.30
2014,07,14,07,02,17.30
2014,07,14,07,03,17.30
2014,07,14,07,04,17.30
2014,07,14,07,05,17.50
2014,07,14,07,06,17.70
2014,07,14,07,07,17.90
2014,07,14,07,08,18.10
2014,07,14,07,09,18.20
2014,07,14,07,10,18.40
2014,07,14,07,11,18.50
2014,07,14,07,12,18.60
2014,07,14,07,13,18.70
2014,07,14,07,14,18.80
2014,07,14,07,15,18.80
2014,07,14,07,16,18.80
2014,07,14,07,17,18.70
2014,07,14,07,18,18.60
2014,07,14,07,19,18.50
2014,07,14,07,20,18.40
2014,07,14,07,21,18.30
2014,07,14,07,22,18.20
2014,07,14,07,23,18.10
2014,07,14,07,24,18.10
2014,07,14,07,25,18.00
2014,07,14,07,26,17.90
2014,07,14,07,27,17.90
2014,07,14,07,28,17.80
2014,07,14,07,29,17.80
2014,07,14,07,30,17.70
2014,07,14,07,31,17.70
2014,07,14,07,32,17.70
2014,07,14,07,33,17.80
2014,07,14,07,34,17.90
2014,07,14,07,35,18.00
2014,07,14,07,36,18.00
2014,07,14,07,37,18.00
2014,07,14,07,38,18.00
2014,07,14,07,39,18.10
2014,07,14,07,40,18.10
2014,07,14,07,41,18.00
2014,07,14,07,42,18.00
2014,07,14,07,43,17.90
2014,07,14,07,44,17.90
2014,07,14,07,45,17.90
2014,07,14,07,46,17.90
2014,07,14,07,47,17.90
2014,07,14,07,48,17.90
2014,07,14,07,49,17.90
2014,07,14,07,50,17.90
2014,07,14,07,51,17.90
2014,07,14,07,52,17.90
2014,07,14,07,53,17.80
2014,07,14,07,54,17.80
2014,07,14,07,55,17.80
2014,07,14,07,56,17.80
2014,07,14,07,57,17.80
2014,07,14,07,58,17.90
2014,07,14,07,59,17.90
2014,07,14,08,00,17.90
2014,07,14,08,01,18.00
2014,07,14,08,02,18.10
2014,07,14,08,03,18.20
2014,07,14,08,04,18.30
2014,07,14,08,05,18.40
2014,07,14,08,06,18.50
2014,07,14,08,07,18.70
2014,07,14,08,08,18.80
2014,07,14,08,09,18.90
2014,07,14,08,10,19.10
2014,07,14,08,11,19.20
2014,07,14,08,12,19.30
2014,07,14,08,13,19.40
2014,07,14,08,14,19.50
2014,07,14,08,15,19.60
2014,07,14,08,16,19.60
2014,07,14,08,17,19.70
2014,07,14,08,18,19.70
2014,07,14,08,19,19.80
2014,07,14,08,20,19.90
2014,07,14,08,21,19.90
2014,07,14,08,22,20.00
2014,07,14,08,23,20.10
2014,07,14,08,24,20.10
2014,07,14,08,25,20.20
2014,07,14,08,26,20.30
2014,07,14,08,27,20.30
2014,07,14,08,28,20.30
2014,07,14,08,29,20.40
2014,07,14,08,30,20.40
2014,07,14,08,31,20.40
2014,07,14,08,32,20.40
2014,07,14,08,33,20.40
2014,07,14,08,34,20.50
2014,07,14,08,35,20.60
2014,07,14,08,36,20.70
2014,07,14,08,37,20.80
2014,07,14,08,38,20.90
2014,07,14,08,39,21.00
2014,07,14,08,40,21.10
2014,07,14,08,41,21.20
2014,07,14,08,42,21.30
2014,07,14,08,43,21.40
2014,07,14,08,44,21.50
2014,07,14,08,45,21.60
2014,07,14,08,46,21.70
2014,07,14,08,47,21.80
2014,07,14,08,48,21.70
2014,07,14,08,49,21.70
2014,07,14,08,50,21.70
2014,07,14,08,51,21.70
2014,07,14,08,52,21.70
2014,07,14,08,53,21.60
2014,07,14,08,54,21.60
2014,07,14,08,55,21.60
2014,07,14,08,56,21.50
2014,07,14,08,57,21.50
2014,07,14,08,58,21.50
2014,07,14,08,59,21.50
2014,07,14,09,00,21.60
2014,07,14,09,01,21.60
2014,07,14,09,02,21.70
2014,07,14,09,03,21.80
2014,07,14,09,04,21.80
2014,07,14,09,05,21.90
2014,07,14,09,06,22.00
2014,07,14,09,07,22.10
2014,07,14,09,08,22.10
2014,07,14,09,09,22.20
2014,07,14,09,10,22.20
2014,07,14,09,11,22.30
2014,07,14,09,12,22.30
2014,07,14,09,13,22.40
2014,07,14,09,14,22.40
2014,07,14,09,15,22.40
2014,07,14,09,16,22.40
2014,07,14,09,17,22.40
2014,07,14,09,18,22.40
2014,07,14,09,19,22.40
2014,07,14,09,20,22.40
2014,07,14,09,21,22.50
2014,07,14,09,22,22.50
2014,07,14,09,23,22.60
2014,07,14,09,24,22.60
2014,07,14,09,25,22.60
2014,07,14,09,26,22.60
2014,07,14,09,27,22.60
2014,07,14,09,28,22.70
2014,07,14,09,29,22.70
2014,07,14,09,30,22.70
2014,07,14,09,31,22.70
2014,07,14,09,32,22.80
2014,07,14,09,33,22.80
2014,07,14,09,34,22.80
2014,07,14,09,35,22.80
2014,07,14,09,36,22.70
2014,07,14,09,37,22.70
2014,07,14,09,38,22.60
2014,07,14,09,39,22.60
2014,07,14,09,40,22.60
2014,07,14,09,41,22.50
2014,07,14,09,42,22.50
2014,07,14,09,43,22.40
2014,07,14,09,44,22.40
2014,07,14,09,45,22.40
2014,07,14,09,46,22.40
2014,07,14,09,47,22.40
2014,07,14,09,48,22.40
2014,07,14,09,49,22.40
2014,07,14,09,50,22.40
2014,07,14,09,51,22.40
2014,07,14,09,52,22.40
2014,07,14,09,53,22.40
2014,07,14,09,54,22.40
2014,07,14,09,55,22.40
2014,07,14,09,56,22.50
2014,07,14,09,57,22.60
2014,07,14,09,58,22.70
2014,07,14,09,59,22.80
2014,07,14,10,00,22.80
2014,07,14,10,01,22.90
2014,07,14,10,02,23.00
2014,07,14,10,03,23.10
2014,07,14,10,04,23.20
2014,07,14,10,05,23.20
2014,07,14,10,06,23.30
2014,07,14,10,07,23.20
2014,07,14,10,08,23.20
2014,07,14,10,09,23.20
2014,07,14,10,10,23.20
2014,07,14,10,11,23.00
2014,07,14,10,12,22.80
2014,07,14,10,13,22.70
2014,07,14,10,14,22.50
2014,07,14,10,15,22.40
2014,07,14,10,16,22.30
2014,07,14,10,17,22.30
2014,07,14,10,18,22.30
2014,07,14,10,19,22.30
2014,07,14,10,20,22.40
2014,07,14,10,21,22.40
2014,07,14,10,22,22.50
2014,07,14,10,23,22.60
2014,07,14,10,24,22.60
2014,07,14,10,25,22.70
2014,07,14,10,26,22.80
2014,07,14,10,27,22.90
2014,07,14,10,28,23.00
2014,07,14,10,29,23.20
2014,07,14,10,30,23.30
2014,07,14,10,31,23.30
2014,07,14,10,32,23.20
2014,07,14,10,33,23.00
2014,07,14,10,34,22.80
2014,07,14,10,35,22.50
2014,07,14,10,36,22.20
2014,07,14,10,37,22.00
2014,07,14,10,38,21.90
2014,07,14,10,39,21.80
2014,07,14,10,40,21.70
2014,07,14,10,41,21.60
2014,07,14,10,42,21.50
2014,07,14,10,43,21.40
2014,07,14,10,44,21.30
2014,07,14,10,45,21.20
2014,07,14,10,46,21.10
2014,07,14,10,47,21.10
2014,07,14,10,48,21.10
2014,07,14,10,49,21.00
2014,07,14,10,50,21.00
2014,07,14,10,51,20.90
2014,07,14,10,52,20.90
2014,07,14,10,53,20.80
2014,07,14,10,54,20.70
2014,07,14,10,55,20.70
2014,07,14,10,56,20.70
2014,07,14,10,57,20.70
2014,07,14,10,58,20.70
2014,07,14,10,59,20.70
2014,07,14,11,00,20.80
2014,07,14,11,01,20.80
2014,07,14,11,02,20.80
2014,07,14,11,03,20.70
2014,07,14,11,04,20.60
2014,07,14,11,05,20.50
2014,07,14,11,06,20.50
2014,07,14,11,07,20.40
2014,07,14,11,08,20.50
2014,07,14,11,09,20.50
2014,07,14,11,10,20.60
2014,07,14,11,11,20.70
2014,07,14,11,12,20.70
2014,07,14,11,13,20.90
2014,07,14,11,14,21.00
2014,07,14,11,15,21.10
2014,07,14,11,16,21.10
2014,07,14,11,17,21.10
2014,07,14,11,18,21.20
2014,07,14,11,19,21.20
2014,07,14,11,20,21.30
2014,07,14,11,21,21.40
2014,07,14,11,22,21.50
2014,07,14,11,23,21.60
2014,07,14,11,24,21.60
2014,07,14,11,25,21.70
2014,07,14,11,26,21.80
2014,07,14,11,27,21.80
2014,07,14,11,28,21.80
2014,07,14,11,29,21.90
2014,07,14,11,30,21.90
2014,07,14,11,31,22.00
2014,07,14,11,32,22.10
2014,07,14,11,33,22.20
2014,07,14,11,34,22.30
2014,07,14,11,35,22.30
2014,07,14,11,36,22.20
2014,07,14,11,37,22.30
2014,07,14,11,38,22.40
2014,07,14,11,39,22.40
2014,07,14,11,40,22.50
2014,07,14,11,41,22.60
2014,07,14,11,42,22.70
2014,07,14,11,43,22.70
2014,07,14,11,44,22.60
2014,07,14,11,45,22.60
2014,07,14,11,46,22.50
2014,07,14,11,47,22.50
2014,07,14,11,48,22.50
2014,07,14,11,49,22.60
2014,07,14,11,50,22.70
2014,07,14,11,51,22.70
2014,07,14,11,52,22.70
2014,07,14,11,53,22.80
2014,07,14,11,54,22.80
2014,07,14,11,55,22.90
2014,07,14,11,56,23.00
2014,07,14,11,57,23.10
2014,07,14,11,58,23.20
2014,07,14,11,59,23.20
2014,07,14,12,00,23.10
2014,07,14,12,01,23.10
2014,07,14,12,02,23.10
2014,07,14,12,03,23.20
2014,07,14,12,04,23.30
2014,07,14,12,05,23.40
2014,07,14,12,06,23.40
2014,07,14,12,07,23.30
2014,07,14,12,08,23.30
2014,07,14,12,09,23.20
2014,07,14,12,10,23.10
2014,07,14,12,11,23.00
2014,07,14,12,12,22.90
2014,07,14,12,13,22.80
2014,07,14,12,14,22.80
2014,07,14,12,15,22.80
2014,07,14,12,16,22.80
2014,07,14,12,17,22.90
2014,07,14,12,18,23.00
2014,07,14,12,19,23.10
2014,07,14,12,20,23.20
2014,07,14,12,21,23.30
2014,07,14,12,22,23.30
2014,07,14,12,23,23.30
2014,07,14,12,24,23.40
2014,07,14,12,25,23.40
2014,07,14,12,26,23.50
2014,07,14,12,27,23.50
2014,07,14,12,28,23.60
2014,07,14,12,29,23.60
2014,07,14,12,30,23.70
2014,07,14,12,31,23.70
2014,07,14,12,32,23.70
2014,07,14,12,33,23.70
2014,07,14,12,34,23.80
2014,07,14,12,35,23.80
2014,07,14,12,36,23.80
2014,07,14,12,37,23.90
2014,07,14,12,38,23.90
2014,07,14,12,39,24.00
2014,07,14,12,40,24.10
2014,07,14,12,41,24.20
2014,07,14,12,42,24.30
2014,07,14,12,43,24.40
2014,07,14,12,44,24.40
2014,07,14,12,45,24.50
2014,07,14,12,46,24.60
2014,07,14,12,47,24.70
2014,07,14,12,48,24.70
2014,07,14,12,49,24.80
2014,07,14,12,50,24.90
2014,07,14,12,51,25.00
2014,07,14,12,52,25.00
2014,07,14,12,53,24.90
2014,07,14,12,54,24.90
2014,07,14,12,55,24.80
2014,07,14,12,56,24.70
2014,07,14,12,57,24.80
2014,07,14,12,58,24.70
2014,07,14,12,59,24.70
2014,07,14,13,00,24.70
2014,07,14,13,01,24.80
2014,07,14,13,02,24.80
2014,07,14,13,03,24.80
2014,07,14,13,04,24.90
2014,07,14,13,05,25.10
2014,07,14,13,06,25.10
2014,07,14,13,07,25.20
2014,07,14,13,08,25.30
2014,07,14,13,09,25.30
2014,07,14,13,10,25.30
2014,07,14,13,11,25.30
2014,07,14,13,12,25.40
2014,07,14,13,13,25.50
2014,07,14,13,14,25.50
2014,07,14,13,15,25.60
2014,07,14,13,16,25.60
2014,07,14,13,17,25.60
2014,07,14,13,18,25.60
2014,07,14,13,19,25.60
2014,07,14,13,20,25.60
2014,07,14,13,21,25.70
2014,07,14,13,22,25.70
2014,07,14,13,23,25.70
2014,07,14,13,24,25.60
2014,07,14,13,25,25.60
2014,07,14,13,26,25.60
2014,07,14,13,27,25.60
2014,07,14,13,28,25.70
2014,07,14,13,29,25.70
2014,07,14,13,30,25.60
2014,07,14,13,31,25.60
2014,07,14,13,32,25.60
2014,07,14,13,33,25.70
2014,07,14,13,34,25.80
2014,07,14,13,35,25.90
2014,07,14,13,36,25.90
2014,07,14,13,37,25.90
2014,07,14,13,38,25.80
2014,07,14,13,39,25.90
2014,07,14,13,40,26.00
2014,07,14,13,41,26.00
2014,07,14,13,42,26.10
2014,07,14,13,43,26.10
2014,07,14,13,44,26.10
2014,07,14,13,45,26.20
2014,07,14,13,46,26.20
2014,07,14,13,47,26.20
2014,07,14,13,48,26.30
2014,07,14,13,49,26.30
2014,07,14,13,50,26.40
2014,07,14,13,51,26.40
2014,07,14,13,52,26.50
2014,07,14,13,53,26.50
2014,07,14,13,54,26.50
2014,07,14,13,55,26.40
2014,07,14,13,56,26.40
2014,07,14,13,57,26.30
2014,07,14,13,58,26.40
2014,07,14,13,59,26.40
2014,07,14,14,00,26.40
2014,07,14,14,01,26.40
2014,07,14,14,02,26.40
2014,07,14,14,03,26.40
2014,07,14,14,04,26.40
2014,07,14,14,05,26.50
2014,07,14,14,06,26.50
2014,07,14,14,07,26.60
2014,07,14,14,08,26.60
2014,07,14,14,09,26.70
2014,07,14,14,10,26.80
2014,07,14,14,11,26.90
2014,07,14,14,12,27.00
2014,07,14,14,13,27.10
2014,07,14,14,14,27.10
2014,07,14,14,15,27.10
2014,07,14,14,16,27.10
2014,07,14,14,17,27.00
2014,07,14,14,18,27.00
2014,07,14,14,19,26.90
2014,07,14,14,20,27.00
2014,07,14,14,21,27.10
2014,07,14,14,22,27.20
2014,07,14,14,23,27.30
2014,07,14,14,24,27.30
2014,07,14,14,25,27.40
2014,07,14,14,26,27.40
2014,07,14,14,27,27.50
2014,07,14,14,28,27.60
2014,07,14,14,29,27.60
2014,07,14,14,30,27.60
2014,07,14,14,31,27.60
2014,07,14,14,32,27.60
2014,07,14,14,33,27.60
2014,07,14,14,34,27.50
2014,07,14,14,35,27.50
2014,07,14,14,36,27.50
2014,07,14,14,37,27.50
2014,07,14,14,38,27.60
2014,07,14,14,39,27.60
2014,07,14,14,40,27.70
2014,07,14,14,41,27.70
2014,07,14,14,42,27.80
2014,07,14,14,43,27.80
2014,07,14,14,44,27.80
2014,07,14,14,45,27.90
2014,07,14,14,46,28.00
2014,07,14,14,47,28.10
2014,07,14,14,48,28.10
2014,07,14,14,49,28.20
2014,07,14,14,50,28.40
2014,07,14,14,51,28.60
2014,07,14,14,52,28.80
2014,07,14,14,53,28.90
2014,07,14,14,54,28.90
2014,07,14,14,55,28.90
2014,07,14,14,56,28.90
2014,07,14,14,57,28.90
2014,07,14,14,58,28.80
2014,07,14,14,59,28.80
2014,07,14,15,00,28.70
2014,07,14,15,01,28.70
2014,07,14,15,02,28.70
2014,07,14,15,03,28.80
2014,07,14,15,04,28.80
2014,07,14,15,05,28.80
2014,07,14,15,06,28.80
2014,07,14,15,07,28.90
2014,07,14,15,08,28.90
2014,07,14,15,09,29.00
2014,07,14,15,10,29.10
2014,07,14,15,11,29.20
2014,07,14,15,12,29.30
2014,07,14,15,13,29.40
2014,07,14,15,14,29.40
2014,07,14,15,15,29.40
2014,07,14,15,16,29.40
2014,07,14,15,17,29.40
2014,07,14,15,18,29.30
2014,07,14,15,19,29.30
2014,07,14,15,20,29.30
2014,07,14,15,21,29.40
2014,07,14,15,22,29.40
2014,07,14,15,23,29.30
2014,07,14,15,24,29.30
2014,07,14,15,25,29.20
2014,07,14,15,26,29.20
2014,07,14,15,27,29.20
2014,07,14,15,28,29.30
2014,07,14,15,29,29.30
2014,07,14,15,30,29.40
2014,07,14,15,31,29.30
2014,07,14,15,32,29.20
2014,07,14,15,33,29.10
2014,07,14,15,34,29.10
2014,07,14,15,35,29.00
2014,07,14,15,36,29.00
2014,07,14,15,37,29.00
2014,07,14,15,38,28.90
2014,07,14,15,39,28.90
2014,07,14,15,40,28.90
2014,07,14,15,41,28.90
2014,07,14,15,42,28.90
2014,07,14,15,43,28.90
2014,07,14,15,44,28.90
2014,07,14,15,45,28.80
2014,07,14,15,46,28.80
2014,07,14,15,47,28.80
2014,07,14,15,48,28.80
2014,07,14,15,49,28.80
2014,07,14,15,50,28.90
2014,07,14,15,51,29.00
2014,07,14,15,52,29.10
2014,07,14,15,53,29.20
2014,07,14,15,54,29.40
2014,07,14,15,55,29.50
2014,07,14,15,56,29.60
2014,07,14,15,57,29.70
2014,07,14,15,58,29.70
2014,07,14,15,59,29.70
2014,07,14,16,00,29.70
2014,07,14,16,01,29.70
2014,07,14,16,02,29.70
2014,07,14,16,03,29.80
2014,07,14,16,04,29.90
2014,07,14,16,05,30.00
2014,07,14,16,06,30.10
2014,07,14,16,07,30.20
2014,07,14,16,08,30.30
2014,07,14,16,09,30.40
2014,07,14,16,10,30.40
2014,07,14,16,11,30.60
2014,07,14,16,12,30.60
2014,07,14,16,13,30.70
2014,07,14,16,14,30.80
2014,07,14,16,15,30.90
2014,07,14,16,16,31.00
2014,07,14,16,17,31.10
2014,07,14,16,18,31.00
2014,07,14,16,19,30.90
2014,07,14,16,20,30.90
2014,07,14,16,21,31.00
2014,07,14,16,22,30.90
2014,07,14,16,23,30.90
2014,07,14,16,24,30.90
2014,07,14,16,25,30.80
2014,07,14,16,26,30.80
2014,07,14,16,27,30.80
2014,07,14,16,28,30.80
2014,07,14,16,29,30.80
2014,07,14,16,30,30.80
2014,07,14,16,31,30.90
2014,07,14,16,32,30.90
2014,07,14,16,33,30.90
2014,07,14,16,34,30.90
2014,07,14,16,35,30.80
2014,07,14,16,36,30.80
2014,07,14,16,37,30.80
2014,07,14,16,38,30.70
2014,07,14,16,39,30.60
2014,07,14,16,40,30.50
2014,07,14,16,41,30.40
2014,07,14,16,42,30.30
2014,07,14,16,43,30.20
2014,07,14,16,44,30.20
2014,07,14,16,45,30.30
2014,07,14,16,46,30.40
2014,07,14,16,47,30.40
2014,07,14,16,48,30.40
2014,07,14,16,49,30.50
2014,07,14,16,50,30.60
2014,07,14,16,51,30.60
2014,07,14,16,52,30.60
2014,07,14,16,53,30.60
2014,07,14,16,54,30.60
2014,07,14,16,55,30.60
2014,07,14,16,56,30.60
2014,07,14,16,57,30.70
2014,07,14,16,58,30.70
2014,07,14,16,59,30.70
2014,07,14,17,00,30.70
2014,07,14,17,01,30.70
2014,07,14,17,02,30.70
2014,07,14,17,03,30.70
2014,07,14,17,04,30.70
2014,07,14,17,05,30.70
2014,07,14,17,06,30.70
2014,07,14,17,07,30.80
2014,07,14,17,08,30.80
2014,07,14,17,09,30.80
2014,07,14,17,10,30.90
2014,07,14,17,11,30.90
2014,07,14,17,12,30.90
2014,07,14,17,13,30.80
2014,07,14,17,14,30.80
2014,07,14,17,15,30.70
2014,07,14,17,16,30.60
2014,07,14,17,17,30.70
2014,07,14,17,18,30.70
2014,07,14,17,19,30.70